www.pogodaiklimat.ru

Погода и климат >> Архив погоды >> Кипр >> Лефке


ПОГОДА в Лефке

  • Прогноз погоды в Лефке
  • Монитор погоды в Лефке

АРХИВ ПОГОДЫ в Лефке

Время (UTC), дата Ветер
(напр.,м/с)
 
Видим.   Явления Облачность Т
(С)
Тd
(С)
f
(%)
Тe
(С)
Тes
(С)
Комфортность P
(гПа)
Po
(гПа)
Тmin
(С)
Tmax
(С)
R
(мм)
R24
(мм)
S
(см)
18 13.09 штиль 0 10 км 1/1 750 м
[Cu hum]
+26.9 +21.1 71 +34 +34 очень
душно
1008.7 1006.9 +30.6
21 13.09 Ю 2 10 км 1/1 750 м
[Cu hum]
+25.9 +16.4 56 +29 +29 душно 1008.4 1006.6
00 14.09 Ю 3 10 км 1/1 750 м
[Cu hum]
+25.4 +16.5 58 +29 +29 душно 1008.1 1006.3
03 14.09 штиль 0 10 км 1/1 750 м
[Cu hum]
+24.2 +17.6 67 +28 +28 душно 1007.5 1005.7
06 14.09 штиль 0 10 км 1/1 750 м
[Cu hum]
+27.1 +19.2 62 +33 +38 очень
душно
1007.6 1005.8 +23.8
09 14.09 З 5 10 км 6/6 750 м
[Cu med, cong]
+27.0 +22.0 74 +35 +38 очень
душно
1007.5 1005.7
12 14.09 З 2 10 км в посл. час ливневой дождь 9/6 750 м
[Cb cap Ac trans]
+26.8 +20.5 68 +33 +36 очень
душно
1007.2 1005.4 4
15 14.09 З 9 10 км слаб. ливневой дождь 8/6 750 м
[Cb cap Ac trans]
+26.8 +20.0 66 +33 +33 очень
душно
1006.7 1004.9
18 14.09 СВ 5 10 км зарница {ливн. осадки} 5/5 750 м
[Cb cap]
+24.3 +19.1 73 +29 +29 душно 1008.1 1006.3 +28.2 4
21 14.09 Ю 2 10 км 3/3 750 м
[Cu hum]
+23.9 +17.0 65 +28 +28 душно 1007.8 1006.0
00 15.09 штиль 0 10 км 3/3 750 м
[Cu hum]
+23.7 +15.4 60 +27 +27 жарко 1007.2 1005.4
03 15.09 Ю 3 10 км 3/3 750 м
[Cu hum]
+24.0 +15.9 61 +27 +27 жарко 1007.2 1005.4
06 15.09 ЮВ 4 10 км 5/5 750 м
[Cu med, cong]
+23.8 +16.6 64 +27 +29 жарко 1008.8 1007.0 +23.1
09 15.09 З 3 10 км 5/5 750 м
[Cu med, cong]
+27.3 +16.4 51 +31 +37 душно 1009.5 1007.7
12 15.09 З 4 10 км 5/5 750 м
[Cb cap]
+27.9 +15.9 48 +31 +35 душно 1009.0 1007.2
15 15.09 З 4 10 км 3/3 750 м
[Cu med, cong]
+27.9 +17.6 54 +32 +33 душно 1008.4 1007.1
18 15.09 ЮВ 3 10 км 3/3 750 м
[Cu hum]
+25.8 +14.9 51 +29 +29 душно 1009.4 1007.6 +28.8
00 16.09 штиль 0 10 км 1/1 750 м
[Cu hum]
+26.1 +16.4 55 +30 +30 душно 1008.7 1006.9
03 16.09 штиль 0 10 км 3/3 750 м
[Cu hum]
+25.0 +14.1 51 +27 +27 жарко 1009.2 1007.4
06 16.09 штиль 0 10 км 1/1 750 м
[Cu hum]
+25.2 +13.6 49 +27 +33 жарко 1009.9 1008.1 +24.1
09 16.09 СЗ 3 10 км 1/1 900 м
[Cu hum]
+28.7 +15.5 45 +32 +42 душно 1010.4 1008.6
12 16.09 З 6 10 км 6/6 750 м
[Cb cap]
+28.4 +17.8 53 +33 +34 очень
душно
1010.4 1008.6
15 16.09 З 6 10 км 3/3 900 м
[Cu hum]
+28.6 +17.7 52 +33 +33 очень
душно
1010.4 1008.6
18 16.09 штиль 0 10 км 1/1 900 м
[Cu hum]
+25.4 +11.2 41 +27 +27 жарко 1011.8 1010.0 +29.0
21 16.09 Ю 3 10 км ясно +24.0 +8.9 38 +25 +25 комфорт 1012.6 1010.8
00 17.09 ЮВ 3 10 км ясно +22.7 +9.5 43 +24 +24 комфорт 1012.2 1010.4
03 17.09 Ю 3 10 км ясно +22.0 +8.0 41 +23 +23 комфорт 1012.4 1010.6
06 17.09 В 2 10 км ясно +23.9 +8.6 38 +25 +29 комфорт 1013.4 1011.6 +21.2
09 17.09 З 3 10 км 1/1 750 м
[Cu hum]
+26.5 +17.7 58 +31 +41 душно 1014.2 1012.4
12 17.09 З 7 10 км 4/4 750 м
[Cu hum]
+27.3 +18.8 60 +32 +34 очень
душно
1013.3 1011.5
15 17.09 З 5 10 км 3/3 750 м
[Cu hum]
+27.5 +17.1 53 +31 +32 душно 1013.0 1011.2
18 17.09 Ю 3 10 км ясно +25.2 +17.5 62 +29 +29 душно 1014.3 1012.5 +28.2
21 17.09 Ю 4 10 км ясно +24.3 +15.1 56 +27 +27 жарко 1014.3 1012.5
00 18.09 Ю 5 10 км ясно +23.3 +10.8 45 +25 +25 комфорт 1014.3 1012.5
03 18.09 Ю 5 10 км ясно +23.7 +9.0 39 +24 +24 комфорт 1014.1 1012.3
06 18.09 В 2 10 км ясно +25.0 +8.3 35 +25 +30 комфорт 1014.8 1013.0 +23.1
09 18.09 СЗ 4 10 км ясно +27.4 +18.2 57 +32 +42 очень
душно
1015.1 1013.3
12 18.09 З 6 10 км 1/1 900 м
[Cu hum]
+27.2 +20.1 65 +33 +37 очень
душно
1014.5 1012.7
15 18.09 З 6 10 км 1/1 900 м
[Cu hum]
+27.4 +18.8 59 +32 +33 очень
душно
1014.1 1012.3
18 18.09 Ю 2 10 км ясно +26.0 +17.8 61 +30 +30 душно 1014.4 1012.8 +29.2
21 18.09 Ю 4 10 км ясно +24.3 +15.6 58 +27 +27 жарко 1014.4 1012.6
00 19.09 Ю 4 10 км ясно +24.0 +10.0 41 +25 +25 комфорт 1013.8 1012.0
03 19.09 Ю 4 10 км ясно +23.8 +7.9 36 +24 +24 комфорт 1013.4 1011.6
06 19.09 штиль 0 10 км ясно +24.4 +8.6 37 +25 +31 комфорт 1014.0 1012.2 +22.5
09 19.09 З 5 10 км ясно +26.8 +20.9 70 +34 +42 очень
душно
1012.3 1012.5
12 19.09 З 7 10 км 1/1 750 м
[Cu hum]
+27.4 +21.1 69 +35 +37 очень
душно
1013.1 1011.3
15 19.09 З 6 10 км ясно +27.3 +20.4 66 +34 +34 очень
душно
1012.5 1010.7
18 19.09 штиль 0 10 км ясно +25.5 +18.5 65 +30 +30 душно 1013.1 1011.3 +28.5
21 19.09 ЮВ 3 10 км ясно +23.5 +15.1 59 +26 +26 жарко 1013.0 1011.2
00 20.09 ЮВ 3 10 км ясно +21.8 +9.1 44 +23 +23 комфорт 1012.1 1010.3
03 20.09 ЮВ 2 10 км ясно +20.9 +8.6 45 +23 +23 комфорт 1011.8 1009.9
06 20.09 штиль 0 10 км ясно +23.1 +7.9 38 +24 +30 комфорт 1011.8 1010.0 +20.1
09 20.09 З 3 10 км 1/1 750 м
[Cu hum]
+25.9 +16.2 55 +29 +39 душно 1011.7 1009.9
12 20.09 З 12 10 км 1/1 750 м
[Cu hum]
+26.0 +18.3 63 +31 +31 очень
душно
1010.2 1008.4
15 20.09 З 8 10 км ясно +26.3 +18.7 63 +31 +31 душно 1009.8 1008.0

 

Местоположение метеостанции Лефке (Кипр): широта 35.82 долгота 32.83 высота над уровнем моря 129 м.

В архиве по умолчанию представлена погода в Лефке за последнюю неделю. Архивные данные за месяц целиком и за предыдущие месяцы, начиная с января 2011 года, Вы можете получить, выбрав интересующий диапазон дат из раскрывающегося списка и нажав кнопку "Ввод!".


*Определитесь, кто Вы:
робот инопланетянин человек

Внимание! Время в таблицах - всемирное. Для получения местного времени необходимо прибавить поправку, которая равна 2 ч.

Смотрите также архив погоды в соседних городах и на ближайших метеорологических станциях:

Погода в Анамуре (Турция) (29 км)
Погода в Акденизе (Кипр) (59 км)
Погода в Киринии (Кипр) (69 км)
Погода в Аталассе (Кипр) (91 км)
Погода в Никосии (Кипр) (96 км)
Погода в Лефконико (Кипр) (103 км)
Погода на Базе ВВС Gecitkale (Кипр) (105 км)
Погода в Аланье (Турция) (110 км)
Погода в Гиалусе (Кипр) (112 км)
Погода в Искеле (Кипр) (112 км)

Пояснения к столбцам:

Ветер - указаны скорость ветра в м/с - средняя за 10 мин, порывы в срок и между сроками (в фигурных скобках) и направление, откуда дует ветер: С - северный, СВ - северо-восточный, В - восточный, ЮВ - юго-восточный, Ю - южный, ЮЗ - юго-западный, З - западный, СЗ - северо-западный.
Видимость - горизонтальная дальность видимости в метрах или километрах. При видимости от 1 до 10 км при отсутствии осадков обычно наблюдается дымка, при ухудшении видимости до 1 км и менее - туман. В сухую погоду видимость может ухудшаться дымом, пылью или мглою.
Явления - указаны атмосферные явления, наблюдавшиеся в срок или в последний час перед сроком; фигурными скобками обозначены явления, наблюдавшиеся между сроками (за 1-3 часа до срока); квадратными скобками обозначены град или гололедные отложения с указанием их диаметра в мм.
Облачность - указаны через наклонную черту общая и нижняя облачность в баллах и высота нижней границы облаков в метрах; квадратными скобками обозначены формы облаков: Ci - перистые, Cs - перисто-слоистые, Cc - перисто-кучевые, Ac - высококучевые, As - высокослоистые, Sc - слоисто-кучевые, Ns - слоисто-дождевые, Cu - кучевые, Cb - кучево-дождевые. Подробнее классификацию облаков см. в Атласе облаков (PDF).
T - Температура воздуха - температура, измеренная на высоте 2 м над землей.
Td - Температура точки росы - температура, при понижении до которой содержащийся в воздухе водяной пар достигнет насыщения.
f - Относительная влажность воздуха - влажноcть воздуха, измеренная на высоте 2 м над землей.
Te - Эффективная температура - температура, которую ощущает одетый по сезону человек в тени. Характеристика душности погоды. При расчете учитывается влияние влажности воздуха и скорости ветра на теплоощущения человека.
Tes - Эффективная температура на солнце - температура, которую ощущает человек, с поправкой на солнечный нагрев. Характеристика знойности погоды. Зависит от высоты солнца над горизонтом, облачности и скорости ветра. Ночью, в пасмурную погоду, а также при ветре 12 м/с и более поправка равна нулю.
P - Атмосферное давление - приведенное к уровню моря атмосферное давление.
Po - Атмосферное давление - измеренное на уровне метеостанции атмосферное давление.
Tmin - Минимальная температура - минимум температуры воздуха на высоте 2 м над землей.
Tmax - Максимальная температура - максимум температуры воздуха на высоте 2 м над землей.
R - Количество осадков - Количество выпавших осадков за период времени, мм. При наведении курсора мыши на число - период времени, за который выпало указанное количество осадков.
R24 - Количество осадков - Количество выпавших осадков за 24 часа, мм.
S - Снежный покров - Высота снежного покрова, см. При наведении курсора мыши на число - состояние снежного покрова и степень покрытия местности в баллах.